Regional Weather Roundup
Issued by NWS Mobile, AL

Home | Current Version | Previous Version | Text Only | Print | Product List | Glossary On
Versions: 1 2 3 4 5 6 7 8 9 10 11 12 13 14 15 16 17 18 19 20 21 22 23 24 25 26 27 28 29 30 31 32 33 34 35 36 37 38 39 40 41 42 43 44 45 46 47 48 49 50
219
ASUS44 KMOB 261312
RWRMOB
REGIONAL WEATHER ROUNDUP
NATIONAL WEATHER SERVICE MOBILE AL
800 AM CDT FRI AUG 26 2016

NOTE: "FAIR" INDICATES FEW OR NO CLOUDS BELOW 12,000 FEET WITH NO
      SIGNIFICANT WEATHER AND/OR OBSTRUCTIONS TO VISIBILITY.

  * THESE STATIONS ARE PART OF THE UNIVERSITY OF SOUTH ALABAMA
    MESONET AND ARE NOT UNDER NWS OR FAA QUALITY CONTROL.

ALZ061>064-261400-
COASTAL ALABAMA

CITY           SKY/WX    TMP DP  RH WIND       PRES   REMARKS
MOBILE REG APT MOSUNNY   78  74  87 NE5       30.07R
BROOKLEY FIELD MOSUNNY   82  71  69 E14       30.06R
USA CAMPUS*    NOT AVBL
DOG RIVER*     NOT AVBL


CITY           SKY/WX    TMP DP  RH WIND       PRES   REMARKS
MOUNT VERNON*  NOT AVBL
SARALAND*      NOT AVBL
BAY MINETTE*   NOT AVBL
LOXLEY*        NOT AVBL
ROBERTSDALE*   NOT AVBL
FAIRHOPE*      NOT AVBL
ELBERTA*       NOT AVBL
FOLEY*         NOT AVBL
GRAND BAY*     NOT AVBL
DAUPHIN ISLND* NOT AVBL
BON SCOUR NWR* NOT AVBL
GULF SHORES    SUNNY     78  75  90 CALM      30.04S

$$

ALZ051>060-261400-
INTERIOR SOUTHWEST AND SOUTH CENTRAL ALABAMA

CITY           SKY/WX    TMP DP  RH WIND       PRES   REMARKS
GREENVILLE     SUNNY     78  70  76 CALM      30.09R
EVERGREEN      SUNNY     76  72  87 CALM      30.07S
CASTLEBERRY*   NOT AVBL
ATMORE*        NOT AVBL
DIXIE*         NOT AVBL
ANDALUSIA/OPP  SUNNY     80  70  71 E5        30.07S
ANDALUSIA*     NOT AVBL
FLORALA APT    SUNNY     76  69  79 E6        30.09R
FLORALA*       NOT AVBL

$$

FLZ001>006-261400-
WESTERN FLORIDA PANHANDLE

CITY           SKY/WX    TMP DP  RH WIND       PRES   REMARKS
PENSACOLA      SUNNY     80  72  76 E6        30.05R
NAS PENSACOLA  MOSUNNY   81  73  76 VRB5      30.04R
MILTON         MOSUNNY   77  72  84 NE5       30.06R
WHTNG S FIELD  MOSUNNY   80  73  79 NE6       30.06R


CITY           SKY/WX    TMP DP  RH WIND       PRES   REMARKS
WALNUT HILL*   NOT AVBL
JAY*           NOT AVBL
DUKE FIELD     SUNNY     76  70  84 VRB2      30.04S
CRESTVIEW      SUNNY     76  70  82 E5        30.07R
VALPARAISO     MOSUNNY   79  70  74 E8        30.04R
DESTIN         SUNNY     83  73  72 E8        30.04R

$$

MSZ076-079-261400-
INTERIOR SOUTHEAST MISSISSIPPI

CITY           SKY/WX    TMP DP  RH WIND       PRES   REMARKS
LEAKESVILLE*   NOT AVBL
AGRICOLA*      NOT AVBL

$$

MARINE OBSERVATIONS

STATION/POSITION TIME  TEMP    WIND        PRES    WAVE
                       AIR SEA DIR/SP/G            HT/PER
                 (UTC) (F)     (DEG/KT/KT) (MB)    (FT/S)
PASCAGOULA       1200   77      20/  5/  6 1016.9R
PETIT BOIS ISLND 1200   80      40/ 11/ 13 1017.6R
GRAND BAY        1145   76      20/  5     1018.0S
KATRINA CUT      1200   81      40/  9     1017.6R
CEDAR POINT      1200   82      90/ 10     1016.9R
E DAUPHIN ISLAND 1200   81      70/ 11/ 12 1016.7R
MIDDLE BAY LIGHT 1200   80      80/ 14     1016.9R
USCG MOBILE BAY  1200   79 88   70/  5/  8 1017.6R
STATE DOCKS      1200   78 87              1017.0R
MEAHER PARK      1200   76      70/  3     1017.3R
WEEKS BAY        1100   73                   N/A
FORT MORGAN      1200   81      80/  9/ 11 1016.4R
12 S ORANGE BCH  1250   85 86  100/ 14/ 16 1016.8R   3/ 6
PENSACOLA BAY    1200   81 87  150/  1/  4 1017.1R
64 S DAUPHIN ISL 1200   86 86   80/ 14/ 16 1015.5R
67 S FORT MORGAN 1230   85      70/ 16       N/A

$$

SELECTED LOCATIONS ACROSS THE REGION

CITY           SKY/WX    TMP DP  RH WIND       PRES   REMARKS
NEW ORLEANS    PTSUNNY   83  77  82 NE9       30.02S
GULFPORT       SUNNY     79  75  87 NE7       30.03S
PASCAGOULA AP  SUNNY     78  76  93 NE5       30.05R
PASCAGOULA*    NOT AVBL
HATTIESBURG    SUNNY     77  73  87 N3        30.07R
LAUREL         SUNNY     75  72  88 NE3       30.09R
MERIDIAN       MOSUNNY   82  75  79 N5        30.09R
JACKSON        SUNNY     77  72  84 CALM      30.08R
MONTGOMERY     SUNNY     80  71  74 E3        30.10R
TROY           SUNNY     75  71  87 CALM      30.10R
KINSTON*       NOT AVBL
GENEVA*        NOT AVBL
ASHFORD*       NOT AVBL
DOTHAN         SUNNY     75  72  90 E3        30.12R
PANAMA CITY    SUNNY     79  70  74 E7        30.04R

$$





USA.gov is the U.S. government's official web portal to all federal, state and local government web resources and services.